Weather History for St. Petersburg, FL

Change the Weather History Date:

Wednesday, May 1, 2013

  Actual Average Record
Temperature  
Mean Temperature 72 °F -  
Max Temperature 75 °F 84 °F 92 °F (1986)
Min Temperature 69 °F 68 °F 57 °F (1999)
Cooling Degree Days 7    
Growing Degree Days 22 (Base 50)    
Moisture  
Dew Point 69 °F    
Average Humidity 90    
Maximum Humidity 100    
Minimum Humidity 81    
Precipitation  
Precipitation 0.34 in - - ()
Sea Level Pressure  
Sea Level Pressure 29.95 in    
Wind  
Wind Speed 13 mph (ESE)    
Max Wind Speed 20 mph    
Max Gust Speed -    
Visibility 8 miles    
Events Rain    
Averages and records for this station are not official NWS values.
T = Trace of Precipitation, MM = Missing Value Source: NWS Daily Summary

Daily Weather History Graph

Daily Weather History Graph

Search for Another Location

Airport:

Trip Planner

Search our weather history database for the weather conditions in past years. The results will help you decide how hot, cold, wet, or windy it might be!

Date:

Astronomy

May. 01, 2013 Rise Set
Actual Time 6:50 AM EDT 8:04 PM EDT
Civil Twilight 6:26 AM EDT 8:29 PM EDT
Nautical Twilight 5:56 AM EDT 8:58 PM EDT
Astronomical Twilight 5:26 AM EDT 9:29 PM EDT
Moon 1:11 AM EDT (5/1) 12:27 PM EDT (5/1)
Length of Visible Light 14h 03m
Length of Day
13h 13m
Waning Gibbous, 59% of the Moon is Illuminated
May 1
Waning Gibbous
May 2
Last Quarter
May 9
New
May 18
First Quarter
May 25
Full

Hourly Weather History & Observations

Time (EDT) Temp. Dew Point Humidity Pressure Visibility Wind Dir Wind Speed Gust Speed Precip Events Conditions
12:53 AM 75.0 °F 70.0 °F 84% 29.97 in 10.0 mi East 11.5 mph - N/A   Clear
1:53 AM 75.0 °F 70.0 °F 84% 29.95 in 10.0 mi ESE 11.5 mph - N/A   Clear
3:53 AM 73.9 °F 70.0 °F 87% 29.93 in 10.0 mi ESE 15.0 mph - N/A   Partly Cloudy
4:53 AM 73.9 °F 70.0 °F 87% 29.92 in 10.0 mi ESE 15.0 mph - N/A   Clear
5:45 AM 73.9 °F 70.0 °F 87% 29.92 in 10.0 mi East 15.0 mph - N/A   Partly Cloudy
5:53 AM 73.9 °F 71.1 °F 91% 29.93 in 8.0 mi East 16.1 mph - N/A   Scattered Clouds
6:02 AM 73.9 °F 70.0 °F 87% 29.93 in 6.0 mi East 15.0 mph - N/A   Mostly Cloudy
6:10 AM 73.0 °F 70.0 °F 90% 29.93 in 6.0 mi East 15.0 mph - N/A   Scattered Clouds
6:53 AM 73.9 °F 70.0 °F 87% 29.96 in 10.0 mi SE 13.8 mph - N/A   Scattered Clouds
7:16 AM 73.9 °F 70.0 °F 87% 29.97 in 10.0 mi SE 12.7 mph - 0.00 in Rain Light Rain
7:33 AM 73.9 °F 70.0 °F 87% 29.96 in 10.0 mi SE 15.0 mph - 0.00 in   Scattered Clouds
7:53 AM 73.9 °F 70.0 °F 87% 29.97 in 10.0 mi ESE 15.0 mph - 0.00 in   Clear
8:53 AM 73.9 °F 70.0 °F 87% 29.97 in 10.0 mi ESE 16.1 mph - N/A   Mostly Cloudy
9:48 AM 75.2 °F 69.8 °F 83% 29.99 in 10.0 mi SE 12.7 mph - N/A   Overcast
9:53 AM 75.0 °F 70.0 °F 84% 29.99 in 10.0 mi SE 11.5 mph - N/A   Overcast
10:27 AM 75.0 °F 70.0 °F 84% 29.99 in 10.0 mi SE 15.0 mph - N/A   Overcast
10:53 AM 75.0 °F 71.1 °F 87% 30.00 in 10.0 mi ESE 12.7 mph - 0.00 in Rain Light Rain
12:35 PM 75.9 °F 72.0 °F 87% 29.98 in 10.0 mi East 11.5 mph - 0.00 in Rain Light Rain
12:53 PM 75.9 °F 72.0 °F 87% 29.98 in 10.0 mi East 13.8 mph - 0.00 in Rain Light Rain
1:05 PM 75.9 °F 72.0 °F 87% 29.98 in 10.0 mi East 15.0 mph - 0.00 in   Mostly Cloudy
2:51 PM 71.6 °F 69.8 °F 94% 29.95 in 4.0 mi South 15.0 mph - 0.08 in Rain Rain
2:52 PM 71.1 °F 69.1 °F 93% 29.95 in 4.0 mi South 12.7 mph - 0.08 in Rain Rain
2:56 PM 70.0 °F 69.1 °F 97% 29.95 in 2.5 mi SSW 9.2 mph - 0.03 in Rain Rain
3:06 PM 69.1 °F 68.0 °F 96% 29.95 in 1.5 mi South 10.4 mph - 0.15 in Rain Heavy Rain
3:21 PM 69.1 °F 68.0 °F 96% 29.95 in 2.5 mi South 10.4 mph - 0.32 in Rain Rain
3:29 PM 70.0 °F 68.0 °F 93% 29.95 in 4.0 mi SSE 9.2 mph - 0.34 in Rain Rain
4:05 PM 70.0 °F 69.1 °F 97% 29.94 in 2.5 mi Calm Calm - 0.06 in Rain Rain
4:22 PM 70.0 °F 66.9 °F 90% 29.93 in 4.0 mi Calm Calm - 0.10 in Rain Light Rain
4:45 PM 70.0 °F 68.0 °F 93% 29.94 in 3.0 mi ESE 8.1 mph - 0.18 in Rain Rain
4:53 PM 70.0 °F 66.9 °F 90% 29.95 in 4.0 mi ESE 12.7 mph - 0.20 in Rain Rain
5:53 PM 70.0 °F 69.1 °F 97% 29.94 in 8.0 mi ENE 10.4 mph - 0.03 in Rain Light Rain
6:25 PM 71.1 °F 70.0 °F 96% 29.94 in 4.0 mi NE 9.2 mph - 0.03 in Rain Light Rain
6:30 PM 70.0 °F 69.1 °F 97% 29.94 in 2.5 mi NE 8.1 mph - 0.05 in Rain Rain
6:37 PM 70.0 °F 70.0 °F 100% 29.94 in 3.0 mi East 11.5 mph - 0.06 in Rain Rain
7:07 PM 71.1 °F 69.1 °F 93% 29.94 in 7.0 mi East 11.5 mph - 0.01 in Rain Light Rain
7:14 PM 70.0 °F 68.0 °F 93% 29.95 in 7.0 mi ESE 15.0 mph - 0.01 in Rain Light Rain
7:23 PM 70.0 °F 69.1 °F 97% 29.94 in 7.0 mi ESE 15.0 mph - 0.01 in Rain Light Rain
7:53 PM 69.1 °F 68.0 °F 96% 29.95 in 10.0 mi SE 16.1 mph - 0.02 in Rain Light Rain
8:13 PM 69.1 °F 66.9 °F 93% 29.96 in 10.0 mi ESE 18.4 mph - 0.00 in Rain Light Rain
8:53 PM 70.0 °F 66.9 °F 90% 29.97 in 10.0 mi ESE 19.6 mph - 0.00 in   Overcast
9:53 PM 69.1 °F 66.9 °F 93% 29.97 in 10.0 mi ESE 13.8 mph - 0.01 in   Overcast
10:53 PM 72.0 °F 66.0 °F 81% 29.96 in 10.0 mi East 13.8 mph - N/A   Overcast
11:53 PM 72.0 °F 66.9 °F 84% 29.97 in 10.0 mi East 15.0 mph - N/A   Overcast